Warsaw, IN

6:19 PM EST on December 16, 2017 (GMT -0500)
Warsaw Municipal

Weather History for KASW - December, 2011

Change the Weather History Date:

Sunday, December 25, 2011

  Actual Average Record
Temperature  
Mean Temperature 37 °F -  
Max Temperature 42 °F 32 °F 64 °F (1982)
Min Temperature 32 °F 13 °F -20 °F (1983)
Degree Days  
Heating Degree Days 28    
Moisture  
Dew Point 29 °F    
Average Humidity 75    
Maximum Humidity 87    
Minimum Humidity 57    
Precipitation  
Precipitation 0.00 in - - ()
Sea Level Pressure  
Sea Level Pressure 30.12 in    
Wind  
Wind Speed 12 mph (WSW)    
Max Wind Speed 21 mph    
Max Gust Speed 31 mph    
Visibility 10 miles    
Events      
Averages and records for this station are not official NWS values.
T = Trace of Precipitation, MM = Missing Value Source: NWS Daily Summary

Daily Weather History Graph

Daily Weather History Graph

Search for Another Location

Airport or City:

Trip Planner

Search our weather history database for the weather conditions in past years. The results will help you decide how hot, cold, wet, or windy it might be!

Date:

Astronomy

Dec. 25, 2011 Rise Set
Actual Time 8:07 AM EST 5:19 PM EST
Civil Twilight 7:35 AM EST 5:50 PM EST
Nautical Twilight 7:01 AM EST 6:25 PM EST
Astronomical Twilight 6:27 AM EST 6:59 PM EST
Moon 8:44 AM EST (12/25) 6:39 PM EST (12/25)
Length of Visible Light 10h 14m
Length of Day
9h 12m
New Moon, 1% of the Moon is Illuminated
Dec 25
New Moon
Jan 1
First Quarter
Jan 9
Full
Jan 16
Last Quarter
Jan 23
New

Hourly Weather History & Observations

Time (EST) Temp. Windchill Dew Point Humidity Pressure Visibility Wind Dir Wind Speed Gust Speed Precip Events Conditions
12:15 AM 32.0 °F 23.0 °F 28.4 °F 87% 30.21 in 10.0 mi WSW 11.5 mph 17.3 mph N/A   Clear
12:35 AM 32.0 °F 23.0 °F 28.4 °F 87% 30.20 in 10.0 mi WSW 11.5 mph - N/A   Clear
12:55 AM 32.0 °F 23.6 °F 28.4 °F 87% 30.20 in 10.0 mi WSW 10.4 mph - N/A   Clear
1:15 AM 32.0 °F 23.6 °F 28.4 °F 87% 30.19 in 10.0 mi SW 10.4 mph - N/A   Clear
1:35 AM 32.0 °F 24.2 °F 28.4 °F 87% 30.18 in 10.0 mi WSW 9.2 mph - N/A   Clear
1:55 AM 32.0 °F 24.8 °F 28.4 °F 87% 30.18 in 10.0 mi WSW 8.1 mph - N/A   Clear
2:15 AM 32.0 °F 23.6 °F 28.4 °F 87% 30.17 in 10.0 mi SW 10.4 mph - N/A   Clear
2:35 AM 32.0 °F 23.6 °F 28.4 °F 87% 30.16 in 10.0 mi SW 10.4 mph - N/A   Clear
2:55 AM 32.0 °F 24.8 °F 28.4 °F 87% 30.16 in 10.0 mi SW 8.1 mph - N/A   Clear
3:15 AM 32.0 °F 23.6 °F 28.4 °F 87% 30.16 in 10.0 mi WSW 10.4 mph - N/A   Clear
3:35 AM 32.0 °F 23.6 °F 28.4 °F 87% 30.15 in 10.0 mi WSW 10.4 mph - N/A   Clear
3:55 AM 33.8 °F 27.0 °F 28.4 °F 81% 30.14 in 10.0 mi SW 8.1 mph - N/A   Clear
4:15 AM 33.8 °F 26.4 °F 28.4 °F 81% 30.14 in 10.0 mi SW 9.2 mph - N/A   Scattered Clouds
4:35 AM 33.8 °F 25.3 °F 28.4 °F 81% 30.13 in 10.0 mi SW 11.5 mph 17.3 mph N/A   Mostly Cloudy
4:55 AM 33.8 °F 26.4 °F 28.4 °F 81% 30.12 in 10.0 mi SW 9.2 mph 18.4 mph N/A   Scattered Clouds
5:15 AM 33.8 °F 25.8 °F 28.4 °F 81% 30.11 in 10.0 mi SW 10.4 mph 17.3 mph N/A   Clear
5:35 AM 33.8 °F 25.3 °F 28.4 °F 81% 30.11 in 10.0 mi WSW 11.5 mph 18.4 mph N/A   Clear
5:55 AM 33.8 °F 25.3 °F 28.4 °F 81% 30.11 in 10.0 mi WSW 11.5 mph - N/A   Clear
6:15 AM 32.0 °F 23.6 °F 28.4 °F 87% 30.12 in 10.0 mi WSW 10.4 mph - N/A   Clear
6:35 AM 33.8 °F 25.8 °F 28.4 °F 81% 30.11 in 10.0 mi WSW 10.4 mph 18.4 mph N/A   Clear
6:55 AM 33.8 °F 26.4 °F 28.4 °F 81% 30.10 in 10.0 mi SW 9.2 mph 18.4 mph N/A   Clear
7:15 AM 33.8 °F 24.3 °F 28.4 °F 81% 30.10 in 10.0 mi SW 13.8 mph 17.3 mph N/A   Clear
7:35 AM 33.8 °F 25.8 °F 28.4 °F 81% 30.10 in 10.0 mi SW 10.4 mph - N/A   Clear
7:55 AM 33.8 °F 27.0 °F 28.4 °F 81% 30.09 in 10.0 mi SW 8.1 mph - N/A   Clear
8:15 AM 33.8 °F 28.6 °F 28.4 °F 81% 30.08 in 10.0 mi SW 5.8 mph 16.1 mph N/A   Clear
8:35 AM 33.8 °F 25.8 °F 28.4 °F 81% 30.07 in 10.0 mi SW 10.4 mph 17.3 mph N/A   Clear
8:55 AM 33.8 °F 25.8 °F 28.4 °F 81% 30.07 in 10.0 mi SW 10.4 mph - N/A   Clear
9:15 AM 33.8 °F 24.3 °F 28.4 °F 81% 30.07 in 10.0 mi SW 13.8 mph 23.0 mph N/A   Clear
9:35 AM 33.8 °F 23.2 °F 28.4 °F 81% 30.07 in 10.0 mi WSW 17.3 mph 21.9 mph N/A   Clear
9:55 AM 35.6 °F 26.2 °F 28.4 °F 75% 30.07 in 10.0 mi WSW 15.0 mph 20.7 mph N/A   Clear
10:15 AM 35.6 °F 26.2 °F 28.4 °F 75% 30.08 in 10.0 mi WSW 15.0 mph 23.0 mph N/A   Clear
10:35 AM 35.6 °F 26.2 °F 28.4 °F 75% 30.08 in 10.0 mi WSW 15.0 mph 20.7 mph N/A   Clear
10:55 AM 37.4 °F 28.2 °F 28.4 °F 70% 30.07 in 10.0 mi WSW 16.1 mph 20.7 mph N/A   Clear
11:15 AM 37.4 °F 28.9 °F 28.4 °F 70% 30.05 in 10.0 mi SW 13.8 mph 24.2 mph N/A   Clear
11:35 AM 39.2 °F 30.2 °F 28.4 °F 65% 30.06 in 10.0 mi WSW 17.3 mph 23.0 mph N/A   Clear
11:55 AM 41.0 °F 33.1 °F 30.2 °F 65% 30.06 in 10.0 mi WSW 15.0 mph 20.7 mph N/A   Clear
12:15 PM 41.0 °F 32.2 °F 30.2 °F 65% 30.07 in 10.0 mi West 18.4 mph 23.0 mph N/A   Scattered Clouds
12:35 PM 41.0 °F 33.9 °F 30.2 °F 65% 30.07 in 10.0 mi West 12.7 mph 23.0 mph N/A   Scattered Clouds
12:55 PM 42.8 °F 36.2 °F 30.2 °F 61% 30.06 in 10.0 mi West 12.7 mph 20.7 mph N/A   Clear
1:15 PM 42.8 °F 34.3 °F 28.4 °F 57% 30.07 in 10.0 mi WNW 19.6 mph 27.6 mph N/A   Clear
1:35 PM 41.0 °F 31.9 °F 30.2 °F 65% 30.07 in 10.0 mi West 19.6 mph 27.6 mph N/A   Mostly Cloudy
1:55 PM 42.8 °F 35.1 °F 30.2 °F 61% 30.07 in 10.0 mi West 16.1 mph 19.6 mph N/A   Mostly Cloudy
2:15 PM 42.8 °F 34.5 °F 30.2 °F 61% 30.07 in 10.0 mi WNW 18.4 mph 23.0 mph N/A   Mostly Cloudy
2:35 PM 42.8 °F 34.8 °F 28.4 °F 57% 30.08 in 10.0 mi WNW 17.3 mph 26.5 mph N/A   Mostly Cloudy
2:55 PM 41.0 °F 31.6 °F 28.4 °F 61% 30.08 in 10.0 mi WNW 20.7 mph 31.1 mph N/A   Mostly Cloudy
3:15 PM 41.0 °F 31.6 °F 28.4 °F 61% 30.10 in 10.0 mi WNW 20.7 mph 24.2 mph N/A   Mostly Cloudy
3:35 PM 41.0 °F 31.9 °F 28.4 °F 61% 30.11 in 10.0 mi WNW 19.6 mph 25.3 mph N/A   Overcast
3:55 PM 41.0 °F 31.9 °F 28.4 °F 61% 30.12 in 10.0 mi WNW 19.6 mph 27.6 mph N/A   Overcast
4:15 PM 41.0 °F 33.1 °F 30.2 °F 65% 30.14 in 10.0 mi NW 15.0 mph 24.2 mph N/A   Overcast
4:35 PM 39.2 °F 30.2 °F 28.4 °F 65% 30.15 in 10.0 mi NW 17.3 mph 24.2 mph N/A   Overcast
4:55 PM 39.2 °F 30.2 °F 28.4 °F 65% 30.16 in 10.0 mi NW 17.3 mph 21.9 mph N/A   Overcast
5:15 PM 39.2 °F 32.0 °F 28.4 °F 65% 30.17 in 10.0 mi NW 11.5 mph 16.1 mph N/A   Overcast
5:35 PM 39.2 °F 30.8 °F 28.4 °F 65% 30.18 in 10.0 mi WNW 15.0 mph 21.9 mph N/A   Overcast
5:55 PM 39.2 °F 31.2 °F 28.4 °F 65% 30.18 in 10.0 mi NW 13.8 mph - N/A   Overcast
6:15 PM 37.4 °F 30.3 °F 28.4 °F 70% 30.19 in 10.0 mi NW 10.4 mph - N/A   Overcast
6:35 PM 37.4 °F 29.8 °F 28.4 °F 70% 30.20 in 10.0 mi NW 11.5 mph - N/A   Overcast
6:55 PM 37.4 °F 30.8 °F 28.4 °F 70% 30.21 in 10.0 mi NW 9.2 mph - N/A   Overcast
7:15 PM 37.4 °F 31.4 °F 28.4 °F 70% 30.22 in 10.0 mi WNW 8.1 mph - N/A   Overcast
7:35 PM 37.4 °F 32.1 °F 28.4 °F 70% 30.23 in 10.0 mi WNW 6.9 mph - N/A   Overcast
7:55 PM 37.4 °F 31.4 °F 28.4 °F 70% 30.23 in 10.0 mi WNW 8.1 mph - N/A   Overcast
8:15 PM 37.4 °F 31.4 °F 28.4 °F 70% 30.25 in 10.0 mi WNW 8.1 mph - N/A   Overcast
8:35 PM 37.4 °F 31.4 °F 28.4 °F 70% 30.25 in 10.0 mi NW 8.1 mph - N/A   Overcast
8:55 PM 37.4 °F 31.4 °F 28.4 °F 70% 30.26 in 10.0 mi WNW 8.1 mph - N/A   Overcast
9:15 PM 37.4 °F 31.4 °F 28.4 °F 70% 30.25 in 10.0 mi WNW 8.1 mph - N/A   Overcast
9:35 PM 37.4 °F 31.4 °F 28.4 °F 70% 30.25 in 10.0 mi NW 8.1 mph - N/A   Overcast
9:55 PM 37.4 °F 31.4 °F 28.4 °F 70% 30.26 in 10.0 mi NW 8.1 mph - N/A   Overcast
10:35 PM 33.8 °F 27.7 °F 28.4 °F 81% 30.27 in 10.0 mi West 6.9 mph - N/A   Overcast
10:55 PM 35.6 °F 29.2 °F 28.4 °F 75% 30.29 in 10.0 mi West 8.1 mph - N/A   Overcast
11:15 PM 33.8 °F 27.0 °F 28.4 °F 81% 30.29 in 10.0 mi West 8.1 mph - N/A   Overcast
11:35 PM 33.8 °F 27.0 °F 28.4 °F 81% 30.30 in 10.0 mi West 8.1 mph - N/A   Overcast
11:55 PM 33.8 °F 28.6 °F 28.4 °F 81% 30.30 in 10.0 mi West 5.8 mph - N/A   Overcast